Location: Asheville, NC
(35.6000°N, 82.5500°W)
Time: 00:24:39
(UTC-04:00)

Vanguard 2 Rocket - Pass Details

Date: 09 March 2018
Orbit: 553 x 3328 km, 32.9° (Epoch: 22 June)

Event Time Altitude Azimuth Distance (km) Brightness Sun altitude
Rises 21:35:34 0° 273° (W) 3,439 10.7 -37.1°
Reaches altitude 10° 21:37:37 10° 270° (W) 2,717 9.9 -37.5°
Enters shadow 21:42:06 50° 248° (WSW) 1,547 8.1 -38.3°
